Flag for Portugal Weather past 2 weeks in Braga, Portugal

Now
63 °F

Mild.


Feels Like: 63 °F
Forecast: 55 / 79 °F
Wind: 1 mph from Southwest

Location: Porto / Pedras Rubras

Current Time: Aug 1, 2015 at 11:18:29 AM

Latest Report: Aug 1, 2015 at 10:00 AM


Visibility: N/A

Pressure: 29.97 "Hg

Humidity: 93%

Dew point: 61 °F

Location of BragaLocation

Historic Weather in Braga — Graph

°F

Braga temperature yesterday

Maximum temperature yesterday: 74 °F (at 2:00 PM)
Minimum temperature yesterday: 64 °F (at 10:00 PM)
Average temperature yesterday: 68 °F

Past Weeks' High & Low Weather Summary

 TemperatureHumidityPressure
High78 °F (Jul 17, 2:00 PM)95% (Jul 27, 3:00 AM)30.14 "Hg (Jul 27, 3:00 AM)
Low54 °F (Jul 25, 6:00 AM)38% (Jul 25, 3:00 PM)29.80 "Hg (Jul 31, 6:00 AM)
Average68 °F77%30.04 "Hg
* Reported Jul 17 10:00 AM — Aug 1 10:00 AM, Braga, Weather by CustomWeather, © 2015

Note: Actual official high and low records may vary slightly from our data, if they occured in-between our weather recording intervals... More about our weather records

Advertising

Braga weather history for previous 24 hours

 ConditionsComfort  
Time TempWeatherWind HumidityBarometerVisibility
10:00 AM
Sat, Aug 1
63 °FMild.1 mph93%29.97 "HgN/A
9:00 AM61 °FCool.1 mph93%29.97 "HgN/A
8:00 AM60 °FCool.1 mph91%29.96 "HgN/A
7:00 AM60 °FCool.1 mph91%29.94 "HgN/A
6:00 AM61 °FCool.1 mph90%29.93 "HgN/A
3:00 AM63 °FMild.2 mph85%29.92 "HgN/A
2:00 AM63 °FMild.1 mph85%29.92 "HgN/A
1:00 AM62 °FMild.1 mph85%29.92 "HgN/A
12:00 AM64 °FMild.1 mph82%29.91 "HgN/A
11:00 PM
Fri, Jul 31
65 °FMild.2 mph77%29.90 "HgN/A
10:00 PM64 °FMild.3 mph79%29.89 "HgN/A
9:00 PM65 °FMild.5 mph77%29.87 "HgN/A
8:00 PM67 °FMild.6 mph73%29.85 "HgN/A
7:00 PM71 °FMild.5 mph65%29.85 "HgN/A
6:00 PM72 °FMild.6 mph63%29.84 "HgN/A
5:00 PM71 °FMild.7 mph65%29.85 "HgN/A
4:00 PM73 °FMild.7 mph60%29.85 "HgN/A
3:00 PM73 °FMild.6 mph63%29.85 "HgN/A
2:00 PM74 °FMild.5 mph65%29.85 "HgN/A
1:00 PM71 °FMild.5 mph73%29.86 "HgN/A
12:00 PM69 °FMild.5 mph79%29.86 "HgN/A
11:00 AM70 °FMild.3 mph79%29.84 "HgN/A
Weather by CustomWeather, © 2015

See weather overviewHow to use our weather pages